Total_Precipitation_Accumulation
0.01 0.05 0.19 0.41 0.81 1.22 1.13 0.58 0.40 0.27 0.28 0.39 0.39 0.29 0.30 0.38 0.47 0.75 0.37 0.27 0.13 0.04 0.03 0.06 0.09 0.08 0.08 0.10 0.11 0.13 0.12 0.11 0.11 0.09 0.08 0.07 0.07 0.07 0.07 0.07 0.10 0.12 0.13 0.13 0.14 0.13 0.11 0.11 0.10
0.02 0.08 0.25 0.54 1.05 1.51 0.99 0.43 0.30 0.25 0.34 0.41 0.33 0.26 0.29 0.27 0.24 0.18 0.17 0.29 0.13 0.05 0.03 0.03 0.07 0.08 0.07 0.09 0.10 0.12 0.13 0.13 0.13 0.11 0.09 0.09 0.09 0.10 0.12 0.11 0.11 0.12 0.14 0.13 0.12 0.11 0.09 0.09 0.10
0.03 0.10 0.31 0.53 0.84 1.03 0.52 0.24 0.20 0.23 0.37 0.40 0.32 0.28 0.30 0.34 0.31 0.22 0.15 0.17 0.12 0.05 0.04 0.04 0.06 0.06 0.07 0.07 0.09 0.11 0.12 0.13 0.15 0.12 0.10 0.11 0.13 0.14 0.15 0.14 0.13 0.14 0.14 0.13 0.12 0.11 0.11 0.11 0.12
0.05 0.16 0.32 0.44 0.58 0.54 0.29 0.18 0.18 0.23 0.35 0.32 0.28 0.37 0.40 0.45 0.28 0.21 0.18 0.13 0.10 0.07 0.05 0.06 0.07 0.07 0.07 0.08 0.09 0.11 0.14 0.15 0.16 0.12 0.12 0.13 0.15 0.15 0.15 0.14 0.14 0.14 0.12 0.13 0.12 0.11 0.12 0.13 0.14
0.07 0.21 0.37 0.44 0.41 0.30 0.22 0.18 0.19 0.20 0.21 0.29 0.34 0.51 0.50 0.46 0.30 0.36 0.37 0.23 0.10 0.09 0.10 0.10 0.10 0.09 0.09 0.09 0.10 0.12 0.13 0.14 0.14 0.13 0.14 0.14 0.16 0.16 0.15 0.15 0.15 0.14 0.12 0.13 0.14 0.14 0.12 0.15 0.16
0.06 0.18 0.26 0.25 0.19 0.15 0.20 0.19 0.16 0.18 0.22 0.33 0.44 0.46 0.52 0.46 0.41 0.59 0.53 0.38 0.21 0.15 0.17 0.19 0.18 0.17 0.14 0.12 0.12 0.13 0.15 0.15 0.16 0.17 0.17 0.16 0.18 0.18 0.17 0.17 0.17 0.16 0.15 0.14 0.16 0.17 0.17 0.17 0.18
0.03 0.08 0.10 0.09 0.09 0.13 0.15 0.14 0.14 0.17 0.29 0.40 0.47 0.56 0.69 0.73 0.59 0.59 0.65 0.62 0.39 0.37 0.47 0.39 0.26 0.22 0.22 0.21 0.19 0.18 0.19 0.20 0.21 0.20 0.19 0.19 0.20 0.20 0.21 0.23 0.23 0.22 0.22 0.22 0.19 0.17 0.21 0.22 0.23
0.01 0.02 0.04 0.04 0.03 0.07 0.08 0.10 0.13 0.17 0.26 0.42 0.54 0.68 0.96 0.90 0.75 0.73 0.79 0.90 0.64 0.54 0.56 0.52 0.37 0.32 0.25 0.21 0.23 0.24 0.25 0.25 0.25 0.23 0.23 0.22 0.22 0.23 0.27 0.28 0.35 0.36 0.38 0.41 0.37 0.28 0.28 0.32 0.34
0.00 0.02 0.03 0.02 0.02 0.03 0.04 0.06 0.10 0.16 0.25 0.33 0.55 0.75 0.78 0.71 0.88 0.93 1.08 1.25 1.18 0.94 0.83 0.71 0.47 0.37 0.35 0.29 0.27 0.33 0.33 0.32 0.31 0.34 0.31 0.34 0.41 0.50 0.64 0.58 0.70 0.66 0.68 0.68 0.66 0.59 0.58 0.61 0.51
0.00 0.01 0.01 0.01 0.01 0.02 0.02 0.05 0.10 0.24 0.40 0.62 0.92 0.92 0.72 0.73 1.04 1.22 1.39 1.60 1.58 1.39 1.23 1.01 0.72 0.56 0.51 0.42 0.44 0.48 0.48 0.58 0.57 0.71 0.75 0.86 1.03 1.01 0.82 0.97 1.20 1.26 1.25 1.18 1.18 1.28 1.15 0.97 0.82
0.00 0.00 0.01 0.01 0.01 0.01 0.02 0.03 0.07 0.19 0.59 1.02 1.29 1.28 1.10 0.99 1.24 1.59 1.89 2.17 1.91 1.60 1.42 1.30 1.08 0.86 0.68 0.67 0.68 0.74 0.85 1.11 0.99 0.94 1.06 1.34 1.27 1.06 0.96 1.10 1.42 1.69 1.69 1.59 1.72 1.85 1.47 1.55 1.69
0.00 0.00 0.00 0.01 0.01 0.01 0.02 0.04 0.12 0.22 0.60 0.84 1.05 1.21 1.27 1.29 1.37 1.59 1.90 2.15 2.30 2.14 1.91 1.69 1.55 1.32 1.21 1.10 1.00 0.92 0.97 1.08 1.07 1.18 1.11 1.42 1.50 1.39 1.32 1.44 1.56 1.78 2.00 2.28 2.23 2.36 2.25 2.18 2.04
0.00 0.00 0.00 0.01 0.01 0.01 0.02 0.06 0.16 0.27 0.53 0.56 0.66 0.84 1.14 1.38 1.71 2.00 2.15 2.48 2.56 2.62 2.39 2.23 2.07 1.98 1.90 1.68 1.46 1.18 1.23 1.20 1.21 1.39 1.40 1.53 1.77 1.83 1.89 1.85 1.78 1.71 2.07 2.47 2.64 2.41 2.68 2.71 2.33
0.00 0.00 0.00 0.01 0.01 0.02 0.03 0.08 0.18 0.33 0.47 0.53 0.60 0.81 1.10 1.43 1.71 2.13 2.43 2.82 2.80 2.81 2.90 2.97 2.82 2.68 2.61 2.37 2.14 1.87 1.70 1.75 1.71 1.75 1.87 2.02 2.15 2.31 2.36 2.22 2.09 1.90 1.95 2.24 2.45 2.46 2.69 2.58 2.46
0.00 0.01 0.04 0.04 0.04 0.05 0.11 0.20 0.36 0.49 0.54 0.70 0.80 1.04 1.22 1.53 1.85 1.98 2.18 2.43 2.72 2.96 3.38 3.62 3.67 3.55 3.44 3.25 2.92 2.53 2.33 2.36 2.49 2.52 2.56 2.51 2.56 2.78 2.67 2.40 2.10 2.01 2.08 2.19 2.19 2.23 2.33 2.19 2.11
0.01 0.03 0.10 0.11 0.07 0.08 0.14 0.39 0.53 0.58 0.70 0.87 0.93 1.17 1.47 1.55 1.86 2.02 2.06 2.25 2.80 3.25 3.79 4.09 4.24 4.41 4.24 4.10 3.73 3.22 2.92 2.81 2.79 2.85 2.84 2.76 2.78 2.68 2.60 2.26 1.92 1.97 2.08 2.08 2.06 1.96 2.03 2.01 2.08
0.02 0.06 0.12 0.19 0.11 0.12 0.19 0.48 0.60 0.62 0.83 0.96 1.14 1.16 1.34 1.56 1.98 2.24 2.34 2.47 2.90 3.53 4.21 4.60 5.03 5.26 5.10 4.68 4.10 3.60 3.46 3.29 3.10 3.04 2.91 2.79 2.61 2.43 2.51 2.19 2.00 1.95 1.94 1.84 1.73 1.93 2.06 2.02 2.06
0.03 0.05 0.12 0.22 0.15 0.14 0.26 0.47 0.68 0.77 0.92 1.09 1.15 1.13 1.27 1.55 1.77 2.08 2.35 2.73 3.09 3.63 4.38 4.97 5.45 5.60 5.28 4.64 4.15 3.96 3.78 3.41 3.11 2.76 2.46 2.26 2.19 2.06 2.16 1.93 1.81 1.89 1.90 1.76 1.79 1.94 1.98 1.79 1.87
0.03 0.05 0.14 0.22 0.14 0.16 0.29 0.46 0.68 0.84 0.98 1.04 1.23 1.22 1.37 1.61 1.79 2.15 2.48 2.91 3.34 3.85 4.54 5.09 5.42 5.33 5.06 4.66 4.22 3.88 3.38 3.01 2.67 2.31 2.02 1.81 1.67 1.61 1.79 1.62 1.66 1.69 1.65 1.53 1.50 1.56 1.58 1.39 1.65
0.05 0.08 0.17 0.21 0.14 0.15 0.30 0.50 0.77 0.85 0.84 0.85 1.07 1.18 1.23 1.40 1.69 1.97 2.46 2.80 3.15 3.61 4.08 4.45 4.36 4.00 3.83 3.73 3.56 3.23 3.13 2.96 2.69 2.44 2.17 1.78 1.63 1.52 1.41 1.45 1.38 1.40 1.45 1.32 1.23 1.35 1.33 1.14 1.38
0.06 0.08 0.14 0.19 0.22 0.23 0.33 0.65 0.88 0.90 0.82 0.77 0.80 0.91 0.99 1.11 1.31 1.61 2.13 2.44 2.62 2.99 3.28 3.31 3.14 2.88 2.84 2.81 2.68 2.67 2.79 2.84 2.72 2.51 2.22 1.91 1.72 1.62 1.53 1.44 1.30 1.23 1.19 1.19 1.14 1.22 1.23 1.10 1.10
0.09 0.06 0.07 0.10 0.19 0.41 0.47 0.82 1.06 1.11 1.08 0.90 0.79 0.87 0.90 0.91 0.95 1.27 1.64 1.82 2.02 2.19 2.34 2.36 2.34 2.23 2.18 2.18 2.03 1.85 1.89 2.06 2.22 2.35 2.29 2.25 2.07 1.84 1.66 1.52 1.31 1.12 1.03 1.08 0.95 0.98 1.12 1.16 1.02
0.06 0.05 0.06 0.09 0.15 0.30 0.41 0.65 1.03 1.25 1.40 1.02 0.80 0.76 0.70 0.75 0.91 1.10 1.21 1.32 1.44 1.46 1.61 1.65 1.81 2.00 2.04 1.99 2.05 1.86 1.55 1.46 1.44 1.53 1.65 1.72 1.72 1.62 1.43 1.31 1.21 1.04 0.92 0.90 0.90 0.98 1.05 1.07 0.99
0.06 0.10 0.16 0.24 0.37 0.60 0.57 0.61 0.92 1.06 1.12 0.81 0.68 0.72 0.60 0.56 0.69 0.84 0.96 1.03 1.07 1.07 1.21 1.40 1.63 1.91 2.02 1.98 1.85 1.75 1.58 1.48 1.37 1.30 1.29 1.23 1.26 1.23 1.16 1.06 1.01 0.95 0.89 0.88 0.84 0.89 0.97 1.04 1.07
0.08 0.15 0.47 0.81 1.14 1.17 0.67 0.66 0.83 0.76 0.74 0.77 0.65 0.61 0.58 0.49 0.47 0.47 0.53 0.60 0.67 0.70 0.80 1.05 1.23 1.39 1.51 1.61 1.52 1.39 1.46 1.49 1.36 1.19 1.06 0.96 0.88 0.87 0.91 0.93 0.92 0.89 0.90 0.93 0.98 0.97 0.95 1.01 1.10
0.08 0.12 0.34 0.58 0.74 0.86 0.70 1.00 1.03 0.77 0.67 0.56 0.47 0.42 0.42 0.33 0.30 0.27 0.31 0.38 0.44 0.49 0.54 0.66 0.88 1.00 1.15 1.24 1.28 1.35 1.47 1.52 1.39 1.38 1.17 1.01 0.88 0.82 0.83 0.94 0.98 0.92 0.88 0.86 0.97 0.99 1.03 1.08 1.10
0.09 0.08 0.12 0.19 0.31 0.57 0.81 0.99 0.91 0.72 0.68 0.49 0.35 0.28 0.26 0.22 0.19 0.20 0.23 0.28 0.30 0.35 0.41 0.44 0.56 0.73 0.93 1.06 1.15 1.20 1.15 1.15 1.14 1.13 1.10 0.99 0.98 0.86 0.92 0.98 1.02 1.01 1.00 1.00 1.04 1.02 1.08 1.24 1.29
0.10 0.09 0.10 0.14 0.27 0.43 0.70 1.02 1.03 0.86 0.72 0.54 0.40 0.26 0.19 0.19 0.18 0.19 0.19 0.20 0.20 0.24 0.33 0.41 0.46 0.60 0.90 1.15 1.19 1.09 0.99 0.86 0.90 0.90 0.94 0.99 0.98 0.94 0.96 0.98 0.99 1.02 1.00 0.99 1.05 1.09 1.16 1.30 1.36
0.14 0.11 0.11 0.13 0.15 0.28 0.59 0.77 0.62 0.58 0.50 0.46 0.40 0.28 0.22 0.20 0.16 0.15 0.13 0.13 0.16 0.20 0.27 0.44 0.53 0.67 0.91 1.18 1.33 1.27 1.09 0.97 0.93 0.83 0.77 0.84 0.92 0.97 1.00 0.94 0.87 0.81 0.82 0.93 1.09 1.11 1.18 1.26 1.31
0.14 0.14 0.14 0.20 0.18 0.19 0.33 0.49 0.34 0.33 0.39 0.35 0.28 0.22 0.17 0.14 0.14 0.12 0.09 0.09 0.12 0.14 0.25 0.54 0.82 1.14 1.29 1.49 1.69 1.62 1.25 1.03 0.93 0.76 0.67 0.75 0.89 0.96 0.98 0.91 0.84 0.79 0.84 0.97 1.08 1.20 1.40 1.52 1.47